This demonstration page uses our WeatherBlox Daily Observations layout. Learn more.

Left ArrowRight Arrow

47.50024, -111.30081

Hourly Observations for November 10, 2015

Temp ( °F °C ) Dew Point ( °F °C ) Humidity (%) Winds ( mph kmh ) Pressure ( in mb ) Visibility ( mi km ) Precip ( " mm )
12:53 am 00:53 Cloudy 29 -1.7 27 -2.8 92 92 NW 13 20 30.02 1017 10 16 0.00 0.03
1:53 am 01:53 Cloudy 29 -1.7 27 -2.8 92 92 NW 10 17 30.03 1017 10 16 0.00 0.00
2:53 am 02:53 Cloudy with Light Snow 29 -1.7 27 -2.8 92 92 NW 14 22 30.04 1017 4 6 0.00 0.03
3:53 am 03:53 Cloudy with Light Snow 29 -1.7 27 -2.8 92 92 NW 9 15 30.04 1017 6 10 0.00 0.03
4:53 am 04:53 Cloudy 29 -1.7 27 -2.8 92 92 NNW 9 15 30.06 1018 10 16 0.00 0.03
5:53 am 05:53 Cloudy 28 -2.2 27 -2.8 96 96 NNW 10 17 30.07 1018 10 16 0.00 0.00
6:53 am 06:53 Cloudy with Light Snow 28 -2.2 26 -3.3 92 92 WSW 7 11 30.09 1019 5 8 0.01 0.25
7:31 am 07:31 Cloudy with Light Snow 28 -2.2 27 -2.8 96 96 W 7 11 30.09 1019 2 3 0.01 0.25
7:50 am 07:50 Cloudy with Light Snow 28 -2 27 -3 93 93 W 7 11 30.09 1019 2 3 0.00 0.00
7:53 am 07:53 Cloudy with Light Snow 28 -2.2 27 -2.8 96 96 W 8 13 30.11 1020 2 2 0.01 0.25
8:06 am 08:06 Cloudy with Light Snow 28 -2 27 -3 93 93 W 9 15 30.09 1019 2 3 0.00 0.00
8:10 am 08:10 Cloudy with Light Snow 28 -2 27 -3 93 93 WNW 9 15 30.09 1019 2 3 0.00 0.00
8:16 am 08:16 Cloudy with Light Snow 28 -2 27 -3 93 93 WNW 8 13 30.09 1019 3 5 0.00 0.00
8:53 am 08:53 Cloudy 29 -1.7 27 -2.8 92 92 W 5 7 30.11 1020 10 16 0.01 0.25
9:50 am 09:50 Cloudy 28 -2 27 -3 93 93 WSW 7 11 30.09 1019 10 16 0.00 0.00
9:53 am 09:53 Cloudy 29 -1.7 27 -2.8 92 92 WSW 7 11 30.12 1020 7 11 0.00 0.00
10:49 am 10:49 Cloudy 30 -1 27 -3 86 86 W 6 9 30.12 1020 10 16 0.00 0.03
10:53 am 10:53 Cloudy 30 -1.1 27 -2.8 88 88 WSW 5 7 30.11 1020 10 16 0.00 0.03
11:53 am 11:53 Mostly Sunny 31 -0.6 28 -2.2 89 89 SW 6 9 30.09 1019 10 16 0.00 0.00
12:53 pm 12:53 Mostly Sunny 33 0.6 28 -2.2 82 82 S 7 11 30.06 1018 10 16 0.00 0.00
1:53 pm 13:53 Cloudy 35 1.7 29 -1.7 78 78 SSW 8 13 30.04 1017 10 16 0.00 0.00
2:53 pm 14:53 Mostly Cloudy 37 2.8 29 -1.7 73 73 SSW 8 13 30.03 1017 10 16 0.00 0.00
3:53 pm 15:53 Sunny 36 2.2 29 -1.7 76 76 SW 10 17 30.02 1017 10 16 0.00 0.00
4:53 pm 16:53 Sunny 31 -0.6 27 -2.8 85 85 SSW 9 15 30.03 1017 10 16 0.00 0.00
5:53 pm 17:53 Clear 29 -1.7 25 -3.9 85 85 SW 9 15 30.04 1017 10 16 0.00 0.00
6:53 pm 18:53 Clear 28 -2.2 24 -4.4 85 85 SW 9 15 30.05 1018 10 16 0.00 0.00
7:53 pm 19:53 Clear 27 -2.8 22 -5.6 81 81 SW 10 17 30.04 1017 10 16 0.00 0.00
8:53 pm 20:53 Clear 26 -3.3 21 -6.1 81 81 SSW 13 20 30.03 1017 10 16 0.00 0.00
9:53 pm 21:53 Clear 27 -2.8 20 -6.7 75 75 SSW 14 22 30.02 1017 10 16 0.00 0.00
10:53 pm 22:53 Clear 27 -2.8 20 -6.7 75 75 SSW 13 20 30.00 1016 10 16 0.00 0.00
11:53 pm 23:53 Clear 28 -2.2 21 -6.1 75 75 SSW 14 22 29.98 1015 10 16 0.00 0.00

Powered by AerisWeather